| time (UTC) | temp F | wind direction | speed MPH | gust MPH | rain 1hr in | rain 24hr in | rain mn in | humidity % | barometer mb |
| 20260505102221 | 57 | 45 | 0.0 | 2.0 | 0.04 | 0.62 | 0.19 | 92 | 1007.4 |
| 20260505101950 | 57 | 24 | 0.0 | 2.0 | 0.05 | 0.62 | 0.18 | 92 | 1007.6 |
| 20260505101220 | 57 | 44 | 0.0 | 0.0 | 0.05 | 0.62 | 0.18 | 91 | 1007.7 |
| 20260505100720 | 57 | 102 | 0.0 | 0.0 | 0.05 | 0.62 | 0.18 | 91 | 1007.9 |
| 20260505100220 | 57 | 97 | 0.0 | 0.0 | 0.06 | 0.62 | 0.18 | 92 | 1008.2 |
| 20260505095720 | 57 | 99 | 0.0 | 0.0 | 0.06 | 0.62 | 0.18 | 92 | 1008.1 |
| 20260505095220 | 57 | 97 | 0.0 | 0.0 | 0.05 | 0.61 | 0.18 | 92 | 1007.9 |
| 20260505094720 | 57 | 158 | 0.0 | 5.0 | 0.06 | 0.61 | 0.17 | 92 | 1008.2 |
| 20260505094703 | 57 | 79 | 0.0 | 5.0 | 0.06 | 0.61 | 0.17 | 93 | 1007.9 |
| 20260505093943 | 57 | 78 | 1.0 | 4.0 | 0.05 | 0.60 | 0.17 | 93 | 1007.6 |
| 20260505093220 | 57 | 102 | 0.0 | 3.0 | 0.06 | 0.60 | 0.16 | 93 | 1008.2 |
| 20260505092720 | 57 | 162 | 0.0 | 3.0 | 0.05 | 0.59 | 0.15 | 93 | 1008.8 |
| 20260505092219 | 57 | 103 | 0.0 | 6.0 | 0.05 | 0.58 | 0.14 | 93 | 1008.5 |
| 20260505091719 | 58 | 140 | 0.0 | 6.0 | 0.04 | 0.57 | 0.13 | 93 | 1008.5 |
| 20260505091219 | 58 | 69 | 1.0 | 6.0 | 0.05 | 0.57 | 0.13 | 93 | 1008.4 |
| 20260505090719 | 58 | 123 | 1.0 | 6.0 | 0.05 | 0.57 | 0.13 | 93 | 1008.5 |
| 20260505090219 | 58 | 185 | 1.0 | 4.0 | 0.05 | 0.56 | 0.12 | 93 | 1008.6 |
| 20260505085719 | 58 | 121 | 0.0 | 4.0 | 0.05 | 0.56 | 0.12 | 92 | 1008.7 |
| 20260505085218 | 58 | 104 | 1.0 | 3.0 | 0.06 | 0.56 | 0.12 | 92 | 1008.7 |
| 20260505084718 | 58 | 140 | 1.0 | 3.0 | 0.05 | 0.55 | 0.11 | 92 | 1008.8 |
| 20260505084219 | 58 | 162 | 0.0 | 1.0 | 0.06 | 0.55 | 0.11 | 92 | 1009.1 |
| 20260505083718 | 58 | 89 | 0.0 | 1.0 | 0.07 | 0.55 | 0.11 | 92 | 1009.4 |
| 20260505083218 | 58 | 99 | 0.0 | 0.0 | 0.06 | 0.54 | 0.10 | 92 | 1009.6 |
| 20260505082940 | 58 | 125 | 0.0 | 0.0 | 0.07 | 0.54 | 0.10 | 92 | 1009.7 |
| 20260505082218 | 58 | 127 | 0.0 | 0.0 | 0.07 | 0.53 | 0.10 | 91 | 1009.8 |
| 20260505081718 | 58 | 190 | 0.0 | 0.0 | 0.07 | 0.53 | 0.09 | 92 | 1009.7 |
| 20260505081218 | 58 | 190 | 0.0 | 0.0 | 0.07 | 0.52 | 0.08 | 91 | 1009.9 |
| 20260505080718 | 58 | 200 | 0.0 | 0.0 | 0.07 | 0.52 | 0.08 | 92 | 1010.0 |
| 20260505080437 | 58 | 255 | 0.0 | 0.0 | 0.07 | 0.51 | 0.07 | 91 | 1010.1 |
| 20260505075718 | 58 | 255 | 0.0 | 0.0 | 0.07 | 0.51 | 0.07 | 91 | 1010.2 |
| 20260505075217 | 58 | 255 | 0.0 | 0.0 | 0.06 | 0.50 | 0.06 | 91 | 1010.3 |
| 20260505074717 | 58 | 255 | 0.0 | 0.0 | 0.07 | 0.50 | 0.06 | 90 | 1010.4 |
| 20260505074217 | 58 | 255 | 0.0 | 0.0 | 0.06 | 0.49 | 0.05 | 90 | 1010.5 |
| 20260505073717 | 58 | 310 | 0.0 | 0.0 | 0.06 | 0.48 | 0.04 | 91 | 1010.5 |
| 20260505073217 | 58 | 39 | 0.0 | 0.0 | 0.06 | 0.48 | 0.04 | 91 | 1010.4 |
| 20260505072717 | 58 | 21 | 0.0 | 0.0 | 0.06 | 0.47 | 0.03 | 92 | 1010.4 |
| 20260505072217 | 58 | 17 | 0.0 | 0.0 | 0.06 | 0.46 | 0.03 | 92 | 1010.3 |
| 20260505071717 | 58 | 17 | 0.0 | 0.0 | 0.07 | 0.46 | 0.02 | 92 | 1010.3 |
| 20260505071217 | 58 | 17 | 0.0 | 0.0 | 0.07 | 0.45 | 0.01 | 92 | 1010.3 |
| 20260505070717 | 58 | 17 | 0.0 | 0.0 | 0.09 | 0.45 | 0.01 | 91 | 1010.3 |
| 20260505070437 | 58 | 18 | 0.0 | 0.0 | 0.09 | 0.44 | 0.01 | 91 | 1010.2 |
| 20260505065941 | 58 | 18 | 0.0 | 0.0 | 0.11 | 0.44 | 0.44 | 90 | 1010.1 |
| 20260505065216 | 58 | 18 | 0.0 | 0.0 | 0.12 | 0.44 | 0.44 | 90 | 1010.2 |
| 20260505064716 | 58 | 28 | 0.0 | 0.0 | 0.12 | 0.43 | 0.43 | 90 | 1010.2 |
| 20260505064440 | 58 | 27 | 0.0 | 0.0 | 0.12 | 0.43 | 0.43 | 90 | 1010.1 |
| 20260505063716 | 58 | 27 | 0.0 | 0.0 | 0.12 | 0.42 | 0.42 | 89 | 1010.0 |
| 20260505063216 | 58 | 27 | 0.0 | 0.0 | 0.13 | 0.42 | 0.42 | 89 | 1010.0 |
| 20260505062715 | 58 | 27 | 0.0 | 0.0 | 0.12 | 0.41 | 0.41 | 89 | 1010.1 |
| 20260505062215 | 58 | 11 | 0.0 | 0.0 | 0.12 | 0.40 | 0.40 | 89 | 1010.1 |
| 20260505061716 | 58 | 0 | 0.0 | 0.0 | 0.11 | 0.39 | 0.39 | 90 | 1010.2 |
| 20260505061216 | 58 | 0 | 0.0 | 0.0 | 0.11 | 0.38 | 0.38 | 90 | 1010.2 |
| 20260505060715 | 59 | 49 | 0.0 | 0.0 | 0.09 | 0.36 | 0.36 | 90 | 1010.2 |
| 20260505060215 | 59 | 49 | 0.0 | 0.0 | 0.08 | 0.35 | 0.35 | 90 | 1010.2 |
| 20260505055714 | 59 | 49 | 0.0 | 0.0 | 0.06 | 0.33 | 0.33 | 90 | 1010.2 |
| 20260505055214 | 59 | 49 | 0.0 | 0.0 | 0.06 | 0.32 | 0.32 | 90 | 1010.2 |
| 20260505054714 | 59 | 49 | 0.0 | 3.0 | 0.05 | 0.31 | 0.31 | 90 | 1009.9 |
| 20260505054214 | 59 | 24 | 0.0 | 3.0 | 0.06 | 0.31 | 0.31 | 90 | 1010.0 |
| 20260505053715 | 59 | 34 | 0.0 | 0.0 | 0.05 | 0.30 | 0.30 | 90 | 1010.0 |
| 20260505053214 | 60 | 173 | 0.0 | 0.0 | 0.04 | 0.29 | 0.29 | 90 | 1010.2 |
| 20260505052714 | 60 | 173 | 0.0 | 0.0 | 0.04 | 0.29 | 0.29 | 90 | 1010.2 |
| 20260505052214 | 60 | 173 | 0.0 | 0.0 | 0.03 | 0.28 | 0.28 | 89 | 1010.1 |
| 20260505051939 | 60 | 326 | 0.0 | 0.0 | 0.04 | 0.28 | 0.28 | 89 | 1009.9 |
| 20260505051214 | 59 | 320 | 0.0 | 0.0 | 0.03 | 0.27 | 0.27 | 89 | 1009.9 |
| 20260505050714 | 60 | 320 | 0.0 | 0.0 | 0.03 | 0.27 | 0.27 | 89 | 1009.9 |
| 20260505050214 | 59 | 319 | 0.0 | 0.0 | 0.03 | 0.27 | 0.27 | 89 | 1010.0 |
| 20260505041713 | 60 | 24 | 0.0 | 2.0 | 0.01 | 0.24 | 0.24 | 83 | 1010.2 |
| 20260505041429 | 60 | 336 | 0.0 | 4.0 | 0.01 | 0.24 | 0.24 | 81 | 1010.1 |
| 20260505040712 | 59 | 39 | 0.0 | 5.0 | 0.01 | 0.24 | 0.24 | 80 | 1010.1 |
| 20260505040212 | 60 | 28 | 0.0 | 6.0 | 0.02 | 0.24 | 0.24 | 80 | 1010.1 |
| 20260505035713 | 59 | 55 | 1.0 | 6.0 | 0.02 | 0.23 | 0.23 | 79 | 1010.0 |
| 20260505035212 | 59 | 59 | 0.0 | 4.0 | 0.02 | 0.23 | 0.23 | 81 | 1009.9 |
| 20260505034934 | 59 | 69 | 0.0 | 13.0 | 0.03 | 0.23 | 0.23 | 80 | 1009.7 |
| 20260505034212 | 59 | 37 | 6.0 | 13.0 | 0.03 | 0.23 | 0.23 | 79 | 1009.6 |
| 20260505033712 | 58 | 52 | 5.0 | 12.0 | 0.04 | 0.23 | 0.23 | 81 | 1009.4 |
| 20260505033211 | 58 | 56 | 3.0 | 10.0 | 0.05 | 0.23 | 0.23 | 81 | 1009.4 |
| 20260505032711 | 58 | 3 | 3.0 | 9.0 | 0.05 | 0.23 | 0.23 | 81 | 1009.1 |
| 20260505032211 | 58 | 49 | 2.0 | 9.0 | 0.05 | 0.23 | 0.23 | 83 | 1009.2 |
| 20260505031711 | 57 | 59 | 3.0 | 9.0 | 0.06 | 0.23 | 0.23 | 84 | 1009.4 |
| 20260505031430 | 57 | 63 | 3.0 | 6.0 | 0.07 | 0.23 | 0.23 | 83 | 1009.7 |
| 20260505030712 | 57 | 45 | 2.0 | 6.0 | 0.07 | 0.23 | 0.23 | 82 | 1010.0 |
| 20260505030211 | 57 | 69 | 3.0 | 6.0 | 0.07 | 0.22 | 0.22 | 80 | 1010.3 |
| 20260505025711 | 57 | 31 | 1.0 | 5.0 | 0.07 | 0.21 | 0.22 | 82 | 1010.3 |
| 20260505025655 | 57 | 42 | 0.0 | 1.0 | 0.08 | 0.21 | 0.21 | 82 | 1010.4 |
| 20260505024711 | 57 | 42 | 0.0 | 1.0 | 0.08 | 0.20 | 0.20 | 79 | 1010.7 |
| 20260505024211 | 57 | 55 | 0.0 | 3.0 | 0.09 | 0.20 | 0.20 | 76 | 1010.4 |
| 20260505024149 | 57 | 35 | 0.0 | 3.0 | 0.08 | 0.19 | 0.19 | 79 | 1010.4 |
| 20260505023210 | 58 | 61 | 0.0 | 2.0 | 0.08 | 0.18 | 0.19 | 74 | 1010.4 |
| 20260505022710 | 57 | 38 | 0.0 | 2.0 | 0.09 | 0.18 | 0.18 | 77 | 1010.4 |
| 20260505022209 | 58 | 6 | 0.0 | 4.0 | 0.10 | 0.18 | 0.18 | 78 | 1010.4 |
| 20260505022200 | 58 | 34 | 0.0 | 4.0 | 0.10 | 0.17 | 0.17 | 77 | 1010.3 |
| 20260505021209 | 58 | 333 | 0.0 | 2.0 | 0.09 | 0.16 | 0.17 | 76 | 1010.2 |
| 20260505020930 | 58 | 307 | 0.0 | 4.0 | 0.09 | 0.16 | 0.16 | 76 | 1010.1 |
| 20260505020209 | 59 | 303 | 0.0 | 5.0 | 0.09 | 0.15 | 0.15 | 76 | 1010.3 |
| 20260505015709 | 60 | 354 | 0.0 | 7.0 | 0.08 | 0.14 | 0.14 | 72 | 1010.1 |
| 20260505015209 | 60 | 314 | 3.0 | 7.0 | 0.08 | 0.13 | 0.13 | 69 | 1010.0 |
| 20260505014710 | 60 | 330 | 0.0 | 7.0 | 0.07 | 0.12 | 0.12 | 71 | 1010.1 |
| 20260505014209 | 60 | 314 | 2.0 | 7.0 | 0.06 | 0.11 | 0.11 | 71 | 1010.0 |
| 20260505013932 | 60 | 292 | 2.0 | 10.0 | 0.06 | 0.11 | 0.11 | 67 | 1009.9 |
| 20260505013209 | 61 | 320 | 2.0 | 10.0 | 0.06 | 0.10 | 0.10 | 68 | 1009.6 |
| 20260505012708 | 61 | 341 | 2.0 | 5.0 | 0.05 | 0.09 | 0.09 | 69 | 1009.5 |
| 20260505012209 | 61 | 319 | 1.0 | 3.0 | 0.04 | 0.08 | 0.08 | 70 | 1009.5 |
| 20260505011709 | 61 | 24 | 0.0 | 2.0 | 0.04 | 0.07 | 0.07 | 74 | 1009.2 |
| 20260505011208 | 62 | 326 | 0.0 | 2.0 | 0.04 | 0.07 | 0.07 | 75 | 1009.1 |
| 20260505010708 | 62 | 314 | 0.0 | 0.0 | 0.05 | 0.07 | 0.07 | 78 | 1009.0 |
| 20260505010208 | 62 | 340 | 0.0 | 0.0 | 0.04 | 0.06 | 0.06 | 80 | 1009.1 |
| 20260505005709 | 63 | 340 | 0.0 | 0.0 | 0.04 | 0.06 | 0.06 | 77 | 1009.1 |
| 20260505005207 | 63 | 341 | 0.0 | 0.0 | 0.03 | 0.05 | 0.06 | 76 | 1009.1 |
| 20260505004707 | 63 | 93 | 0.0 | 0.0 | 0.03 | 0.05 | 0.05 | 74 | 1009.1 |
| 20260505004659 | 63 | 94 | 0.0 | 0.0 | 0.03 | 0.05 | 0.05 | 73 | 1009.2 |
| 20260505003925 | 63 | 45 | 0.0 | 0.0 | 0.03 | 0.05 | 0.05 | 74 | 1009.4 |
| 20260505003207 | 63 | 45 | 0.0 | 0.0 | 0.02 | 0.04 | 0.04 | 69 | 1009.2 |
| 20260505002707 | 64 | 316 | 0.0 | 0.0 | 0.04 | 0.04 | 0.04 | 70 | 1009.2 |
| 20260505002208 | 64 | 316 | 0.0 | 3.0 | 0.04 | 0.04 | 0.04 | 63 | 1009.1 |
| 20260505001928 | 64 | 76 | 0.0 | 3.0 | 0.03 | 0.03 | 0.03 | 61 | 1009.0 |
| 20260505001206 | 65 | 125 | 0.0 | 0.0 | 0.03 | 0.03 | 0.03 | 62 | 1009.0 |
| 20260505000922 | 65 | 204 | 0.0 | 6.0 | 0.02 | 0.02 | 0.02 | 62 | 1008.7 |
| 20260505000207 | 65 | 56 | 0.0 | 6.0 | 0.02 | 0.02 | 0.02 | 57 | 1008.5 |
| 20260504235706 | 65 | 97 | 0.0 | 6.0 | 0.02 | 0.02 | 0.02 | 56 | 1008.4 |
| 20260504235206 | 64 | 17 | 2.0 | 7.0 | 0.02 | 0.02 | 0.02 | 57 | 1008.3 |
| 20260504234929 | 63 | 27 | 3.0 | 7.0 | 0.02 | 0.02 | 0.02 | 61 | 1008.5 |
| 20260504234207 | 63 | 30 | 3.0 | 11.0 | 0.02 | 0.02 | 0.02 | 62 | 1008.7 |
| 20260504233706 | 64 | 354 | 3.0 | 15.0 | 0.02 | 0.02 | 0.02 | 55 | 1009.0 |
| 20260504233206 | 66 | 317 | 6.0 | 15.0 | 0.02 | 0.02 | 0.02 | 53 | 1009.4 |
| 20260504232929 | 69 | 289 | 5.0 | 11.0 | 0.00 | 0.00 | 0.00 | 44 | 1009.5 |
| 20260504232206 | 71 | 320 | 4.0 | 16.0 | 0.00 | 0.00 | 0.00 | 36 | 1009.0 |
| 20260504231706 | 73 | 321 | 6.0 | 16.0 | 0.00 | 0.00 | 0.00 | 32 | 1009.1 |
| 20260504231206 | 74 | 296 | 8.0 | 17.0 | 0.00 | 0.00 | 0.00 | 28 | 1008.9 |
| 20260504230705 | 74 | 309 | 12.0 | 21.0 | 0.00 | 0.00 | 0.00 | 27 | 1008.8 |
| 20260504230205 | 75 | 259 | 9.0 | 21.0 | 0.00 | 0.00 | 0.00 | 26 | 1008.5 |
| 20260504225705 | 75 | 299 | 11.0 | 21.0 | 0.00 | 0.00 | 0.00 | 25 | 1008.3 |
| 20260504225206 | 76 | 272 | 9.0 | 21.0 | 0.00 | 0.00 | 0.00 | 25 | 1008.3 |
| 20260504224705 | 76 | 285 | 8.0 | 19.0 | 0.00 | 0.00 | 0.00 | 23 | 1008.1 |
| 20260504224205 | 76 | 303 | 9.0 | 19.0 | 0.00 | 0.00 | 0.00 | 22 | 1008.1 |
| 20260504223705 | 76 | 237 | 9.0 | 23.0 | 0.00 | 0.00 | 0.00 | 22 | 1008.1 |
| 20260504223205 | 77 | 275 | 12.0 | 23.0 | 0.00 | 0.00 | 0.00 | 22 | 1008.1 |
| 20260504222705 | 77 | 293 | 9.0 | 17.0 | 0.00 | 0.00 | 0.00 | 21 | 1008.1 |
| 20260504222204 | 77 | 312 | 11.0 | 19.0 | 0.00 | 0.00 | 0.00 | 21 | 1008.1 |
| 20260504221704 | 77 | 282 | 9.0 | 20.0 | 0.00 | 0.00 | 0.00 | 20 | 1007.8 |
| 20260504221204 | 78 | 319 | 11.0 | 20.0 | 0.00 | 0.00 | 0.00 | 20 | 1007.9 |
| 20260504221146 | 78 | 279 | 10.0 | 17.0 | 0.00 | 0.00 | 0.00 | 20 | 1007.8 |
| 20260504220203 | 79 | 288 | 10.0 | 16.0 | 0.00 | 0.00 | 0.00 | 20 | 1007.9 |
| 20260504215704 | 79 | 309 | 8.0 | 15.0 | 0.00 | 0.00 | 0.00 | 20 | 1008.1 |
| 20260504215204 | 79 | 292 | 8.0 | 15.0 | 0.00 | 0.00 | 0.00 | 20 | 1008.2 |
| 20260504214703 | 80 | 264 | 8.0 | 13.0 | 0.00 | 0.00 | 0.00 | 19 | 1008.1 |
| 20260504214204 | 79 | 298 | 6.0 | 11.0 | 0.00 | 0.00 | 0.00 | 19 | 1007.8 |
| 20260504213704 | 80 | 305 | 6.0 | 14.0 | 0.00 | 0.00 | 0.00 | 20 | 1007.8 |
| 20260504213203 | 80 | 302 | 6.0 | 14.0 | 0.00 | 0.00 | 0.00 | 20 | 1007.7 |
| 20260504212703 | 80 | 272 | 9.0 | 13.0 | 0.00 | 0.00 | 0.00 | 20 | 1007.7 |
| 20260504212203 | 80 | 313 | 6.0 | 12.0 | 0.00 | 0.00 | 0.00 | 18 | 1007.7 |
| 20260504212142 | 80 | 285 | 7.0 | 13.0 | 0.00 | 0.00 | 0.00 | 18 | 1007.9 |
| 20260504211203 | 80 | 305 | 6.0 | 13.0 | 0.00 | 0.00 | 0.00 | 18 | 1008.1 |
| 20260504210702 | 80 | 303 | 5.0 | 10.0 | 0.00 | 0.00 | 0.00 | 19 | 1008.2 |
| 20260504210203 | 80 | 300 | 4.0 | 9.0 | 0.00 | 0.00 | 0.00 | 19 | 1008.3 |
| 20260504205703 | 80 | 317 | 5.0 | 9.0 | 0.00 | 0.00 | 0.00 | 19 | 1008.2 |
| 20260504205203 | 80 | 245 | 2.0 | 11.0 | 0.00 | 0.00 | 0.00 | 19 | 1008.3 |
| 20260504204702 | 79 | 261 | 2.0 | 11.0 | 0.00 | 0.00 | 0.00 | 19 | 1008.3 |
| 20260504204202 | 80 | 299 | 3.0 | 7.0 | 0.00 | 0.00 | 0.00 | 19 | 1008.3 |
| 20260504203922 | 80 | 278 | 3.0 | 7.0 | 0.00 | 0.00 | 0.00 | 18 | 1008.3 |
| 20260504203202 | 80 | 298 | 2.0 | 11.0 | 0.00 | 0.00 | 0.00 | 19 | 1008.3 |
| 20260504202702 | 80 | 255 | 4.0 | 11.0 | 0.00 | 0.00 | 0.00 | 19 | 1008.3 |
| 20260504202201 | 80 | 219 | 3.0 | 6.0 | 0.00 | 0.00 | 0.00 | 20 | 1008.4 |
| 20260504201927 | 80 | 343 | 1.0 | 7.0 | 0.00 | 0.00 | 0.00 | 21 | 1008.4 |
| 20260504201201 | 79 | 299 | 4.0 | 7.0 | 0.00 | 0.00 | 0.00 | 20 | 1008.6 |
| 20260504200701 | 79 | 354 | 2.0 | 10.0 | 0.00 | 0.00 | 0.00 | 23 | 1008.6 |
| 20260504200201 | 80 | 286 | 4.0 | 10.0 | 0.00 | 0.00 | 0.00 | 22 | 1008.5 |
| 20260504195701 | 81 | 333 | 4.0 | 7.0 | 0.00 | 0.00 | 0.00 | 22 | 1008.5 |
| 20260504195201 | 81 | 79 | 1.0 | 5.0 | 0.00 | 0.00 | 0.00 | 20 | 1008.5 |
| 20260504194921 | 80 | 257 | 2.0 | 4.0 | 0.00 | 0.00 | 0.00 | 21 | 1008.4 |
| 20260504194201 | 80 | 6 | 2.0 | 7.0 | 0.00 | 0.00 | 0.00 | 21 | 1008.4 |
| 20260504193701 | 80 | 189 | 4.0 | 10.0 | 0.00 | 0.00 | 0.00 | 22 | 1008.5 |
| 20260504193201 | 79 | 193 | 6.0 | 10.0 | 0.00 | 0.00 | 0.00 | 22 | 1008.5 |
| 20260504192929 | 78 | 298 | 1.0 | 6.0 | 0.00 | 0.00 | 0.00 | 23 | 1008.5 |
| 20260504192201 | 78 | 257 | 2.0 | 6.0 | 0.00 | 0.00 | 0.00 | 23 | 1008.5 |
| 20260504191700 | 78 | 16 | 2.0 | 5.0 | 0.00 | 0.00 | 0.00 | 25 | 1008.6 |
| 20260504191200 | 77 | 0 | 1.0 | 6.0 | 0.00 | 0.00 | 0.00 | 24 | 1008.5 |
| 20260504190705 | 77 | 343 | 2.0 | 6.0 | 0.00 | 0.00 | 0.00 | 25 | 1008.5 |
| 20260504190200 | 77 | 17 | 2.0 | 6.0 | 0.00 | 0.00 | 0.00 | 24 | 1008.6 |
| 20260504185700 | 77 | 319 | 2.0 | 10.0 | 0.00 | 0.00 | 0.00 | 25 | 1008.9 |
| 20260504185649 | 77 | 6 | 3.0 | 10.0 | 0.00 | 0.00 | 0.00 | 24 | 1008.7 |
| 20260504184700 | 77 | 350 | 2.0 | 5.0 | 0.00 | 0.00 | 0.00 | 25 | 1009.0 |
| 20260504184200 | 77 | 333 | 1.0 | 5.0 | 0.00 | 0.00 | 0.00 | 25 | 1009.0 |
| 20260504183920 | 77 | 317 | 3.0 | 9.0 | 0.00 | 0.00 | 0.00 | 25 | 1009.1 |
| 20260504183159 | 78 | 285 | 4.0 | 9.0 | 0.00 | 0.00 | 0.00 | 23 | 1009.4 |
| 20260504182658 | 79 | 227 | 1.0 | 6.0 | 0.00 | 0.00 | 0.00 | 23 | 1009.2 |
| 20260504182159 | 79 | 283 | 2.0 | 6.0 | 0.00 | 0.00 | 0.00 | 23 | 1009.4 |
| 20260504181659 | 79 | 149 | 1.0 | 2.0 | 0.00 | 0.00 | 0.00 | 23 | 1009.5 |
| 20260504181158 | 79 | 238 | 1.0 | 2.0 | 0.00 | 0.00 | 0.00 | 23 | 1009.5 |
| 20260504180659 | 78 | 224 | 1.0 | 6.0 | 0.00 | 0.00 | 0.00 | 23 | 1009.5 |
| 20260504180422 | 77 | 245 | 1.0 | 6.0 | 0.00 | 0.00 | 0.00 | 23 | 1009.5 |
| 20260504175659 | 77 | 278 | 2.0 | 5.0 | 0.00 | 0.00 | 0.00 | 23 | 1009.6 |
| 20260504175159 | 77 | 214 | 2.0 | 5.0 | 0.00 | 0.00 | 0.00 | 24 | 1009.5 |
| 20260504174658 | 77 | 128 | 1.0 | 5.0 | 0.00 | 0.00 | 0.00 | 24 | 1009.6 |
| 20260504174157 | 77 | 195 | 2.0 | 6.0 | 0.00 | 0.00 | 0.00 | 24 | 1009.7 |
| 20260504173658 | 77 | 248 | 3.0 | 6.0 | 0.00 | 0.00 | 0.00 | 24 | 1009.7 |
| 20260504173158 | 76 | 148 | 2.0 | 6.0 | 0.00 | 0.00 | 0.00 | 24 | 1009.5 |
| 20260504172657 | 76 | 203 | 1.0 | 6.0 | 0.00 | 0.00 | 0.00 | 24 | 1009.6 |
| 20260504172158 | 75 | 302 | 2.0 | 5.0 | 0.00 | 0.00 | 0.00 | 26 | 1009.8 |
| 20260504171658 | 76 | 323 | 2.0 | 5.0 | 0.00 | 0.00 | 0.00 | 27 | 1009.7 |
| 20260504171418 | 76 | 289 | 1.0 | 14.0 | 0.00 | 0.00 | 0.00 | 27 | 1009.6 |
| 20260504170656 | 76 | 241 | 5.0 | 14.0 | 0.00 | 0.00 | 0.00 | 26 | 1009.6 |
| 20260504170157 | 76 | 235 | 4.0 | 9.0 | 0.00 | 0.00 | 0.00 | 26 | 1009.6 |
| 20260504160426 | 75 | 145 | 3.0 | 7.0 | 0.00 | 0.00 | 0.00 | 29 | 1009.8 |
| 20260504150654 | 75 | 286 | 2.0 | 4.0 | 0.00 | 0.00 | 0.00 | 30 | 1009.6 |
| 20260504150154 | 74 | 227 | 0.0 | 4.0 | 0.00 | 0.00 | 0.00 | 31 | 1009.6 |
| 20260504141153 | 70 | 165 | 0.0 | 0.0 | 0.00 | 0.00 | 0.00 | 39 | 1009.2 |
| 20260504140653 | 70 | 166 | 0.0 | 3.0 | 0.00 | 0.00 | 0.00 | 39 | 1009.2 |
| 20260504140417 | 69 | 166 | 0.0 | 3.0 | 0.00 | 0.00 | 0.00 | 35 | 1009.2 |
| 20260504130152 | 65 | 345 | 0.0 | 0.0 | 0.00 | 0.00 | 0.00 | 43 | 1008.6 |
| 20260504120150 | 67 | 351 | 0.0 | 0.0 | 0.00 | 0.00 | 0.00 | 40 | 1008.1 |